Simultaneous Nadir Overpasses (SNOs) Predictions

Prediction of SNOs between NOAA-19 and TERRA Satellite Orbit:

Table of predicted SNOs for the next 14.0 days since TLE Epoch: 5/27/2023
Index Date (NOAA-19) Time (NOAA-19) Lat,Lon (NOAA-19) SZA (NOAA-19 ) Date (TERRA) Time (TERRA) Lat,Lon (TERRA) SZA (TERRA ) Distance(km) Time Diff (sec)
1 05/28/2023 19:54:26 -80.92, 95.17 118.94 05/28/2023 19:54:45 -80.92, 95.13 118.94 0.84 19
2 05/28/2023 20:45:07 80.94, -91.53 61.68 05/28/2023 20:43:54 81.26, -92.46 61.79 38.47 73
3 05/30/2023 23:44:56 80.92,-142.59 60.71 05/30/2023 23:45:05 80.91,-142.55 60.71 0.93 9
4 06/02/2023 03:35:29 -80.92, -20.05 119.58 06/02/2023 03:35:24 -80.93, -19.93 119.56 2.51 5
5 06/04/2023 07:25:59 80.92, 102.45 60.16 06/04/2023 07:25:43 80.93, 102.46 60.16 1.16 16
6 06/06/2023 10:25:32 80.91, 57.27 59.89 06/06/2023 10:26:40 80.92, 57.10 59.90 3.08 68
7 06/06/2023 11:16:32 -80.91,-135.48 120.12 06/06/2023 11:16:03 -80.91,-135.36 120.12 2.10 29
8 06/08/2023 14:16:05 -80.90, 179.09 120.39 06/08/2023 14:17:00 -80.90, 179.22 120.36 2.39 55



Historial Predications of SNOs between NOAA-19 and TERRA
